Flag for Senegal Weather past 2 weeks in Thiès, Senegal

Now
70 °F

Sunny.


Feels Like: 70 °F
Forecast: N/A
Wind: 16 mph from North

Location: Dakar / Yoff

Current Time: Feb 1, 2015 at 3:27:12 PM

Latest Report: Feb 1, 2015 at 3:00 PM


Visibility: 10 mi

Pressure: 29.92 "Hg

Humidity: 78%

Dew point: 63 °F

Location of ThièsLocation

Historic Weather in Thiès — Graph

°F

Thiès temperature yesterday

Maximum temperature yesterday: 72 °F (at 12:30 PM)
Minimum temperature yesterday: 63 °F (at 6:30 AM)
Average temperature yesterday: 67 °F

Past Weeks' High & Low Weather Summary

 TemperatureHumidityPressure
High88 °F (Jan 27, 2:00 PM)94% (Jan 26, 3:00 AM)30.07 "Hg (Jan 26, 3:00 AM)
Low63 °F (Jan 26, 3:00 AM)9% (Jan 27, 2:00 PM)29.83 "Hg (Jan 25, 4:30 PM)
Average68 °F67%29.95 "Hg
* Reported Jan 17 2:00 PM — Feb 1 2:30 PM, Thiès, Weather by CustomWeather, © 2014

Note: Actual official high and low records may vary slightly from our data, if they occured in-between our weather recording intervals... More about our weather records

Advertising

Thiès weather history for previous 24 hours

 ConditionsComfort  
Time TempWeatherWind HumidityBarometerVisibility
2:30 PM
Feb 1
70 °FSunny.15 mph78%29.92 "Hg10 mi
2:00 PM70 °FSunny.17 mph73%29.95 "Hg10 mi
1:30 PM70 °FSunny.15 mph78%29.95 "Hg10 mi
1:00 PM70 °FPassing clouds.16 mph78%29.98 "HgN/A
12:30 PM70 °FSunny.15 mph78%29.98 "Hg10 mi
12:00 PM68 °FSunny.16 mph83%30.01 "Hg10 mi
11:30 AM68 °FSunny.15 mph83%30.01 "Hg10 mi
11:00 AM68 °FSunny.15 mph83%30.01 "Hg10 mi
10:30 AM66 °FSunny.13 mph83%30.01 "Hg10 mi
10:00 AM66 °FSunny.12 mph88%29.98 "Hg10 mi
9:30 AM64 °FSunny.12 mph94%29.98 "Hg10 mi
9:00 AM64 °FSunny.10 mph88%29.98 "Hg10 mi
8:30 AM64 °FSunny.10 mph88%29.98 "Hg10 mi
8:00 AM64 °FSunny.10 mph88%29.95 "Hg10 mi
7:30 AM64 °FClear.10 mph88%29.95 "Hg10 mi
7:00 AM64 °FClear.10 mph88%29.95 "Hg10 mi
6:30 AM64 °FClear.9 mph88%29.95 "Hg10 mi
6:00 AM63 °FClear.10 mph94%29.95 "Hg10 mi
5:30 AM63 °FClear.12 mph94%29.95 "Hg10 mi
5:00 AM63 °FClear.10 mph94%29.95 "Hg10 mi
4:30 AM63 °FClear.10 mph94%29.92 "Hg10 mi
4:00 AM64 °FClear.12 mph88%29.92 "Hg10 mi
3:30 AM63 °FClear.9 mph88%29.95 "Hg10 mi
3:00 AM63 °FClear.10 mph88%29.95 "Hg10 mi
2:30 AM63 °FClear.8 mph88%29.95 "Hg10 mi
2:00 AM64 °FClear.9 mph83%29.98 "Hg10 mi
1:30 AM64 °FClear.9 mph83%29.98 "Hg10 mi
1:00 AM64 °FClear.10 mph83%29.98 "Hg10 mi
12:30 AM64 °FClear.10 mph83%29.98 "Hg10 mi
12:00 AM64 °FClear.12 mph83%29.98 "Hg10 mi
11:30 PM
Jan 31
64 °FClear.13 mph83%29.98 "Hg10 mi
11:00 PM64 °FClear.12 mph83%29.98 "Hg10 mi
10:30 PM64 °FClear.10 mph83%30.01 "Hg10 mi
10:00 PM64 °FClear.10 mph83%29.98 "Hg10 mi
9:00 PM64 °FClear.12 mph83%29.95 "Hg10 mi
8:30 PM68 °FClear.9 mph60%29.95 "Hg10 mi
8:00 PM68 °FClear.9 mph64%29.95 "Hg10 mi
7:30 PM66 °FClear.12 mph73%29.92 "Hg10 mi
7:00 PM68 °FSunny.13 mph69%29.92 "Hg10 mi
6:30 PM70 °FSunny.14 mph60%29.92 "Hg10 mi
6:00 PM72 °FSunny.12 mph50%29.92 "Hg10 mi
5:30 PM68 °FSunny.17 mph69%29.92 "Hg10 mi
5:00 PM70 °FSunny.16 mph60%29.92 "Hg10 mi
4:30 PM70 °FSunny.16 mph60%29.92 "Hg10 mi
4:00 PM72 °FSunny.17 mph57%29.92 "Hg10 mi
3:30 PM72 °FSunny.17 mph61%29.95 "Hg10 mi
3:00 PM72 °FSunny.18 mph61%29.95 "Hg10 mi
Weather by CustomWeather, © 2014

See weather overviewHow to use our weather pages